Content
SEND FEEDBACK

Daily
Averages
Monthly
Summary
United States of America

EAST LA MIRADA, CALIFORNIA


Home > North America > United States > California
Elevation: 710 feet     Latitude: 33 56N     Longitude: 117 52W

WEATHER
 
SELECT A DAY
Number of Records: 176,556;   Date Range: 1/1/95 - 9/29/14
 
SHARE

PRINT THIS DATA

[ ← Previous Day ]
WEATHER ALMANAC - FEBRUARY 13, 2013
[ Next Day → ]
[ °C ]   °F
Weather ElementAverageHighLow
Temperature55.7 °F69.1 °F (12:53 pm)43 °F (4:53 am)
Dewpoint37.4 °F39.9 °F (3:53 pm)33.1 °F (12:53 pm)
Humidity53.2 %76 % (4:53 am)26 % (12:53 pm)
Barometer30.19 in30.26 in (7:53 am)30.13 in (3:53 pm)
Wind Speed2.3 mph8.1 mph (3:53 pm)
Weather ElementAverage
Visibility10 mi
Wind DirectionENE (77 °)

Weather ElementTotal
Precipitation---
Heating Degree Days9 (Base 65)
Growing Degree Days6.1 (Base 50)
Averaged from 23 records on February 13, 2013
WEATHER CONDITIONS BREAKOUT
WIND DIRECTION BREAKOUT
WEATHER BY HOUR - FEBRUARY 13, 2013
[ °C ]   °F
Local TimeTemperatureDewpointHumidityBarometerVisibilityWind DirectionWind SpeedGust SpeedPrecipitationEventsConditions
1:53 AM46.0 °F37.0 °F71 %30.24 in10.0 miESE (110°)3.5 mphClear
2:53 AM46.0 °F37.9 °F73 %30.23 in10.0 miCalmClear
3:53 AM45.0 °F36.0 °F71 %30.23 in10.0 miCalmClear
4:53 AM43.0 °F36.0 °F76 %30.22 in10.0 miCalmClear
5:53 AM43.0 °F36.0 °F76 %30.24 in10.0 miCalmClear
6:53 AM45.0 °F34.0 °F65 %30.24 in10.0 miCalmClear
7:53 AM48.9 °F35.1 °F59 %30.26 in10.0 miCalmClear
8:53 AM55.0 °F37.9 °F53 %30.26 in10.0 miEast (90°)3.5 mphClear
9:53 AM59.0 °F39.0 °F48 %30.25 in10.0 miSSW (210°)3.5 mphClear
10:53 AM64.0 °F37.0 °F37 %30.24 in10.0 miWest (260°)3.5 mphClear
11:53 AM66.0 °F34.0 °F30 %30.21 in10.0 miVariable5.8 mphClear
12:53 PM69.1 °F33.1 °F26 %30.18 in10.0 miCalmClear
1:53 PM69.1 °F37.9 °F32 %30.15 in10.0 miSSW (200°)6.9 mphClear
2:53 PM69.1 °F37.9 °F32 %30.14 in10.0 miSW (220°)6.9 mphClear
3:53 PM66.0 °F39.9 °F38 %30.13 in10.0 miSouth (190°)8.1 mphClear
4:53 PM63.0 °F37.9 °F40 %30.13 in10.0 miSSW (200°)6.9 mphClear
5:53 PM62.1 °F37.0 °F39 %30.14 in10.0 miCalmClear
6:53 PM60.1 °F37.9 °F44 %30.14 in10.0 miWNW (290°)3.5 mphClear
7:53 PM57.0 °F39.9 °F53 %30.15 in10.0 miCalmClear
8:53 PM54.0 °F39.9 °F59 %30.16 in10.0 miCalmClear
9:53 PM52.0 °F39.9 °F63 %30.16 in10.0 miCalmClear
10:53 PM50.0 °F39.9 °F68 %30.17 in10.0 miCalmClear
11:53 PM48.9 °F39.9 °F71 %30.17 in10.0 miCalmClear
Hourly data recorded from KFUL, located miles away from East La Mirada, California







STORIES FROM OUR PARTNERS